Regional Weather Roundup
Issued by NWS

Home | Current Version | Previous Version | Graphics & Text | Print | Product List | Glossary On
Versions: 1 2 3 4 5 6 7 8 9 10 11 12 13 14 15 16 17 18 19 20 21 22 23 24 25 26 27 28 29 30 31 32 33 34 35 36 37 38 39 40 41 42 43 44 45 46 47 48 49 50
000
ASUS43 KIND 240759
RWRIN

WEATHER ROUNDUP FOR INDIANA
NATIONAL WEATHER SERVICE INDIANAPOLIS IN
400 AM EDT THU JUL 24 2014

NOTE: "FAIR" INDICATES FEW OR NO CLOUDS BELOW 12,000 FEET WITH NO
SIGNIFICANT WEATHER AND/OR OBSTRUCTIONS TO VISIBILITY.

* - STATION DOES NOT REPORT WEATHER SUCH AS PRECIPITATION OR FOG.

+ - STATION NOT QUALITY CONTROLLED BY THE NATIONAL WEATHER SERVICE.
    USE DATA WITH CAUTION...ESPECIALLY DEWPOINT AND RELATIVE
    HUMIDITY OBSERVATIONS.

INZ001>003-010>013-019-020-240900-
NORTHWEST INDIANA

CITY           SKY/WX    TMP DP  RH WIND       PRES   REMARKS
GARY /AIRPORT/ CLEAR     65  56  71 NE12      30.12S
KNOX *+          N/A     52  50  93 N3        30.09F VSB 1/4
MONTICELLO +   MOCLDY    57  56  95 NE5       30.07F
RENSSELAER +   CLEAR     55  55 100 N3        30.10S
VALPARAISO     CLEAR     57  53  86 NE5       30.11S

$$

LMZ046-743>745-240900-
SOUTHERN LAKE MICHIGAN

STATION/POSITION TIME  TEMP WIND        PRES
                       AIR  DIR/SP/G
                 (UTC) (F)  (DEG/KT/KT) (MB)
MICHIGAN CITY    0700   63   30/ 15/ 18   N/A

$$

INZ004-005-014>016-021>024-240900-
NORTH CENTRAL INDIANA

CITY           SKY/WX    TMP DP  RH WIND       PRES   REMARKS
GOSHEN         MOCLDY    59  55  87 N6        30.09S
SOUTH BEND     CLEAR     57  52  83 N8        30.11S
WARSAW +       PTCLDY    59  55  88 N3        30.09S

$$

INZ006>009-017-018-025>027-240900-
NORTHEAST INDIANA

CITY           SKY/WX    TMP DP  RH WIND       PRES   REMARKS
ANGOLA *+      CLOUDY    61  55  82 CALM      30.09S
FORT WAYNE     MOCLDY    64  60  87 NE5       30.07F

$$

INZ028-029-035-036-043>045-051>053-240900-
WEST CENTRAL INDIANA

CITY           SKY/WX    TMP DP  RH WIND       PRES   REMARKS
GREENCASTLE +  MOCLDY    55  52  88 N8        30.06S
LAFAYETTE      CLEAR     55  53  93 N6        30.08S
TERRE HAUTE    PTCLDY    57  51  80 N7        30.06S

$$

INZ030>032-037>040-046>048-054>057-064-065-240900-
CENTRAL INDIANA

CITY           SKY/WX    TMP DP  RH WIND       PRES   REMARKS
INDIANAPOLIS   MOCLDY    60  55  83 N8        30.03F
-EAGLE CREEK   PTCLDY    59  54  83 N7        30.04F
KOKOMO *+      CLEAR     55  54  94 N3        30.07F
MT COMFORT *+  PTCLDY    57 N/A N/A N6        30.05S
SHELBYVILLE    CLOUDY    63  60  90 N7        30.03S
ZIONSVILLE +   CLEAR     56  53  87 N6        30.06F

$$

INZ033-034-041-042-049-050-058-059-240900-
EAST CENTRAL INDIANA

CITY           SKY/WX    TMP DP  RH WIND       PRES   REMARKS
MUNCIE         CLEAR     58  55  90 N5        30.06S

$$

INZ060-061-067>069-081>083-085>088-240900-
SOUTHWEST INDIANA

CITY           SKY/WX    TMP DP  RH WIND       PRES   REMARKS
EVANSVILLE     MOCLDY    63  55  75 N7        30.01F
HUNTINGBURG *+ MOCLDY    64  57  77 N9        30.01S

$$

INZ062-063-066-070>080-084-089>092-240900-
SOUTH CENTRAL AND SOUTHEAST INDIANA

CITY           SKY/WX    TMP DP  RH WIND       PRES   REMARKS
BLOOMINGTON    CLOUDY    60  56  86 N10       30.03F

$$



USA.gov is the U.S. government's official web portal to all federal, state and local government web resources and services.